TimeEST,TemperatureF,Dew PointF,Humidity,Sea Level PressureIn,VisibilityMPH,Wind Direction,Wind SpeedMPH,Gust SpeedMPH,PrecipitationIn,Events,Conditions,WindDirDegrees,DateUTC
12:54 AM,41.0,39.9,96,29.54,-9999.0,North,-9999.0,-,0.01,,Unknown,0,2012-11-24 05:54:00
1:54 AM,41.0,39.9,96,29.55,-9999.0,North,-9999.0,-,N/A,,Unknown,0,2012-11-24 06:54:00
2:54 AM,41.0,39.0,93,29.54,-9999.0,North,-9999.0,-,N/A,,Unknown,0,2012-11-24 07:54:00
3:54 AM,39.9,37.9,93,29.53,-9999.0,North,-9999.0,-,N/A,,Unknown,0,2012-11-24 08:54:00
4:54 AM,39.0,35.1,86,29.54,-9999.0,North,-9999.0,-,N/A,,Unknown,0,2012-11-24 09:54:00
5:54 AM,36.0,34.0,93,29.54,-9999.0,North,-9999.0,-,N/A,,Unknown,0,2012-11-24 10:54:00
6:54 AM,36.0,34.0,93,29.54,-9999.0,North,-9999.0,-,N/A,,Unknown,0,2012-11-24 11:54:00
7:54 AM,37.0,27.0,67,29.55,-9999.0,North,-9999.0,-,N/A,,Unknown,0,2012-11-24 12:54:00
8:54 AM,37.0,25.0,62,29.54,-9999.0,North,-9999.0,-,N/A,,Unknown,0,2012-11-24 13:54:00
9:54 AM,37.9,24.1,57,29.54,-9999.0,North,-9999.0,-,N/A,,Unknown,0,2012-11-24 14:54:00
10:54 AM,37.9,21.0,51,29.52,-9999.0,North,-9999.0,-,N/A,,Unknown,0,2012-11-24 15:54:00
11:54 AM,37.9,21.9,53,29.50,-9999.0,North,-9999.0,-,N/A,,Unknown,0,2012-11-24 16:54:00
12:54 PM,36.0,25.0,64,29.50,-9999.0,North,-9999.0,-,N/A,,Unknown,0,2012-11-24 17:54:00
1:54 PM,35.1,24.1,64,29.51,-9999.0,North,-9999.0,-,N/A,,Unknown,0,2012-11-24 18:54:00
2:54 PM,33.1,21.0,61,29.54,-9999.0,North,-9999.0,-,N/A,,Unknown,0,2012-11-24 19:54:00
3:54 PM,30.9,19.0,61,29.55,-9999.0,North,-9999.0,-,N/A,,Unknown,0,2012-11-24 20:54:00
4:54 PM,30.0,21.0,69,29.57,-9999.0,North,-9999.0,-,N/A,,Unknown,0,2012-11-24 21:54:00
5:54 PM,28.9,19.0,67,29.59,-9999.0,North,-9999.0,-,N/A,,Unknown,0,2012-11-24 22:54:00
6:54 PM,28.0,21.0,75,29.59,-9999.0,North,-9999.0,-,N/A,,Unknown,0,2012-11-24 23:54:00
7:54 PM,28.0,21.9,78,29.59,-9999.0,North,-9999.0,-,N/A,,Unknown,0,2012-11-25 00:54:00
8:54 PM,28.0,21.0,75,29.59,-9999.0,North,-9999.0,-,0.01,,Unknown,0,2012-11-25 01:54:00
9:54 PM,28.0,19.9,72,29.59,-9999.0,North,-9999.0,-,N/A,,Unknown,0,2012-11-25 02:54:00
10:54 PM,27.0,19.9,75,29.60,-9999.0,North,-9999.0,-,N/A,,Unknown,0,2012-11-25 03:54:00
11:54 PM,27.0,19.0,72,29.60,-9999.0,North,-9999.0,-,N/A,,Unknown,0,2012-11-25 04:54:00